Location: Miss�
(46.9484°N, 0.1922°W)
Time: 01:19:10
(UTC+00:00)

Cosmos 2322 - Pass Details

Date: 02 March 2021
Orbit: 841 x 853 km, 71.0° (Epoch: 12 April)

Event Time Altitude Azimuth Distance (km) Brightness Sun altitude
Rises 19:56:13 0° 197° (SSW) 3,408 6.9 -22.5°
Reaches altitude 10° 19:58:40 10° 195° (SSW) 2,477 6.1 -22.9°
Maximum altitude 20:04:19 70° 113° (ESE) 910 3.6 -23.9°
Drops below altitude 10° 20:10:00 10° 31° (NNE) 2,491 6.0 -24.8°
Sets 20:12:28 0° 29° (NNE) 3,430 6.8 -25.2°
